This is the latest recevied weather packets stored in our database for station/object 9M4GEK-3. If no packets are shown the sender has not sent any weather packets the latest 1 day(s).
| Time | Temp. | Humidity | Pressure | Rain* | Wind** | Luminosity | Snow |
|---|---|---|---|---|---|---|---|
| 1777912836 | 27.22° C | 71% | 1009.3 hPa | - | - | - | - |
| 1777912804 | 27.22° C | 71% | 1009.3 hPa | - | - | - | - |
| 1777912774 | 27.22° C | 71% | 1009.3 hPa | - | - | - | - |
| 1777911873 | 27.22° C | 70% | 1009.3 hPa | - | - | - | - |
| 1777910974 | 27.22° C | 70% | 1009.5 hPa | - | - | - | - |
| 1777910167 | 27.78° C | 69% | 1009.5 hPa | - | - | - | - |
| 1777910073 | 27.78° C | 69% | 1009.5 hPa | - | - | - | - |
| 1777909173 | 27.78° C | 70% | 1009.6 hPa | - | - | - | - |
| 1777908327 | 27.78° C | 69% | 1009.4 hPa | - | - | - | - |
| 1777908272 | 27.78° C | 69% | 1009.4 hPa | - | - | - | - |
| 1777907372 | 27.78° C | 69% | 1009.2 hPa | - | - | - | - |
| 1777906471 | 27.78° C | 69% | 1009.1 hPa | - | - | - | - |
| 1777905623 | 27.78° C | 68% | 1009.1 hPa | - | - | - | - |
| 1777905571 | 27.78° C | 68% | 1009.1 hPa | - | - | - | - |
| 1777904671 | 27.78° C | 68% | 1008.8 hPa | - | - | - | - |
| 1777903832 | 27.78° C | 68% | 1008.4 hPa | - | - | - | - |
| 1777903770 | 27.78° C | 68% | 1008.4 hPa | - | - | - | - |
| 1777902940 | 27.78° C | 68% | 1008.5 hPa | - | - | - | - |
| 1777902871 | 27.78° C | 68% | 1008.5 hPa | - | - | - | - |
| 1777901970 | 28.33° C | 67% | 1008.5 hPa | - | - | - | - |
| 1777901193 | 28.33° C | 66% | 1008.2 hPa | - | - | - | - |
| 1777901114 | 28.33° C | 65% | 1008 hPa | - | - | - | - |
| 1777901071 | 28.33° C | 67% | 1008.4 hPa | - | - | - | - |
| 1777900498 | 29.44° C | 64% | 1007.1 hPa | - | - | - | - |
| 1777900268 | 29.44° C | 62% | 1006.7 hPa | - | - | - | - |
* Rain since midnight (hover to see other rain measurements)
** Current wind speed in m/s (hover to see current wind gust speed)